Lapse_Rate
8.0 7.6 7.1 7.9 7.6 7.5 7.7 7.9 8.1 8.5 9.0 8.8 9.1 9.5 9.6 9.5 9.6 9.4 9.3 9.0 9.0 9.0 9.1 8.8 8.6 8.3 8.3 8.0 7.6 6.9 7.0 7.1 7.1 6.9 6.5 6.3 6.4 6.5 6.2 6.1 5.7 5.7 5.6 5.5
7.9 7.2 7.6 8.0 7.9 8.0 7.9 8.0 8.2 8.5 9.0 9.1 9.3 9.5 9.6 9.6 9.6 9.5 9.5 9.2 9.1 8.9 8.9 8.9 8.9 8.6 8.6 8.2 7.9 7.5 7.2 7.1 7.3 7.2 6.9 6.7 6.6 6.5 6.4 6.2 5.8 5.8 5.9 5.8
8.4 8.2 8.7 8.2 8.0 7.9 8.2 8.1 8.3 8.4 8.9 9.2 9.4 9.4 9.5 9.6 9.6 9.7 9.6 9.6 9.4 9.2 9.0 9.1 8.9 8.8 8.8 8.4 7.9 7.7 7.2 7.1 7.4 7.3 6.9 6.8 6.6 6.5 6.5 6.4 6.1 5.7 5.8 5.9
8.7 8.7 8.4 8.4 8.4 8.3 8.4 9.0 8.9 8.9 9.0 8.9 9.3 8.6 9.2 9.5 9.4 9.4 9.3 9.7 9.5 9.3 8.9 9.2 8.9 9.2 9.0 8.4 7.8 7.7 7.2 7.0 7.2 7.3 6.9 6.7 6.6 6.4 6.4 6.7 6.6 6.1 5.9 5.8
8.9 8.9 8.6 8.4 8.3 8.8 8.4 9.1 9.4 9.5 9.5 9.1 9.0 8.9 8.2 9.0 9.1 9.3 9.3 9.5 9.5 9.3 9.1 8.9 9.0 9.1 8.8 8.4 7.9 7.8 7.4 7.2 7.0 6.9 6.8 6.4 6.4 6.5 6.4 6.7 6.7 6.4 5.9 5.5
9.3 9.3 9.3 9.2 8.9 9.1 9.1 9.2 9.5 9.6 9.6 8.4 8.8 8.8 8.2 8.7 9.0 8.9 8.9 9.3 9.4 9.5 8.7 8.6 8.9 8.7 8.5 8.3 8.0 8.1 7.8 7.3 7.2 6.8 6.5 6.2 6.1 6.3 6.5 7.0 6.6 6.4 5.9 5.8
9.3 9.0 9.0 9.1 9.1 9.1 9.1 9.2 9.1 8.4 8.1 6.6 9.1 9.2 8.8 8.9 9.0 9.0 9.1 9.3 9.2 9.2 9.0 8.4 8.8 8.7 8.4 8.3 8.7 8.5 8.0 7.3 7.4 7.1 6.2 5.9 6.0 6.2 7.0 7.1 6.7 6.3 6.2 6.1
9.4 9.3 9.3 9.1 9.2 9.1 9.2 9.3 9.1 7.5 7.3 7.6 8.9 8.7 8.7 9.0 9.2 9.2 9.0 9.2 9.0 8.9 8.9 9.0 9.0 8.5 8.4 8.6 8.8 8.4 7.9 7.5 7.5 7.2 6.3 5.9 5.4 6.4 6.6 6.6 6.9 6.6 6.1 6.0
9.2 9.0 9.5 9.5 9.3 9.3 9.2 9.5 9.4 9.5 8.8 8.2 8.4 9.1 9.0 9.2 9.3 9.5 8.9 9.1 9.0 8.9 9.0 8.9 9.0 8.6 8.4 8.5 8.6 8.1 7.9 7.5 7.5 7.1 6.6 5.7 5.2 5.3 6.1 7.0 6.7 6.6 6.1 5.9
9.2 9.0 9.2 9.5 9.4 9.4 9.5 9.6 9.3 9.5 8.2 7.5 8.0 8.9 9.2 9.2 9.1 9.1 9.0 9.0 9.1 9.1 9.0 9.2 8.9 8.7 8.5 8.4 8.2 8.1 7.9 7.7 7.5 7.4 7.0 6.2 6.4 6.4 6.7 6.9 6.5 6.7 6.6 6.1
9.3 9.1 8.6 9.4 9.4 9.7 9.6 9.8 9.5 9.6 9.4 6.9 6.9 8.6 8.9 9.5 9.4 9.6 9.4 9.4 9.3 9.2 9.3 9.2 8.9 8.5 8.4 8.5 8.2 8.1 7.8 7.9 7.9 7.8 7.4 7.1 7.0 6.8 6.7 6.5 6.6 6.6 6.6 6.2
8.9 8.9 9.0 9.4 9.4 9.5 9.8 9.7 9.9 9.6 9.2 9.2 9.4 9.2 9.1 9.0 8.8 9.0 9.0 8.9 9.1 9.1 9.2 8.9 8.8 8.7 8.7 8.6 8.3 8.2 8.2 8.4 8.2 7.9 7.6 7.4 7.2 7.3 7.1 6.7 6.8 6.7 6.5 6.2
8.6 8.9 8.8 8.8 9.2 9.4 9.6 9.9 9.9 9.6 9.2 9.6 8.3 9.0 9.5 9.5 9.3 8.8 8.8 8.7 8.1 8.2 8.2 8.0 8.5 8.5 8.4 8.3 8.3 8.5 8.5 8.4 8.3 8.1 7.7 7.3 7.3 7.2 7.2 7.2 7.0 6.9 6.6 6.2
8.5 8.3 8.5 8.2 8.3 8.8 9.9 9.9 9.6 9.6 9.1 9.6 9.4 9.4 9.3 9.2 9.2 8.9 8.6 9.1 8.8 8.2 8.3 7.7 8.0 8.3 8.5 8.6 8.6 8.5 8.5 8.3 8.2 8.1 7.9 7.8 7.8 7.5 7.3 7.4 7.5 7.4 7.1 6.6
7.8 8.2 8.4 8.8 8.8 9.0 9.5 9.7 9.4 9.2 9.4 8.8 9.2 9.3 9.2 9.1 8.9 8.7 8.6 8.7 8.7 8.9 8.3 7.9 8.7 8.7 8.3 8.4 8.4 8.3 8.3 8.3 8.2 8.1 7.9 7.7 7.6 7.3 7.3 7.3 7.4 7.4 7.4 7.3
7.9 8.3 8.7 8.8 8.9 9.1 9.4 9.4 9.4 8.9 8.9 9.1 8.8 8.9 8.7 8.5 8.3 8.8 8.9 9.1 8.7 8.2 7.5 7.8 7.8 7.9 8.3 8.2 8.2 8.2 8.2 8.2 8.0 7.8 7.8 7.4 7.5 7.6 7.4 7.4 7.2 7.2 7.2 7.0
8.2 8.4 9.0 8.8 8.7 9.0 8.7 8.5 9.1 9.1 8.3 8.7 8.4 8.4 7.8 8.1 8.5 8.4 8.5 8.6 7.9 7.4 7.6 7.6 7.7 7.7 7.7 7.9 8.2 8.2 8.2 8.0 7.9 7.8 7.8 7.6 7.5 7.5 7.3 7.2 7.3 7.1 7.1 7.2
8.8 8.8 8.7 8.6 8.6 7.6 7.7 8.2 8.5 8.5 8.2 8.3 8.5 8.1 8.1 7.4 7.2 7.0 7.9 7.4 7.6 7.5 7.5 7.6 7.6 7.8 7.8 7.9 7.9 8.0 7.9 8.0 7.9 7.8 7.8 7.6 7.6 7.4 7.4 7.3 7.0 6.6 6.7 7.1
8.9 8.5 8.7 8.3 8.1 7.7 7.3 7.7 7.9 7.9 8.3 8.7 8.6 8.2 8.0 7.5 7.3 6.0 6.9 7.0 6.6 7.4 7.1 6.9 7.3 7.8 7.9 8.2 7.9 7.8 7.9 8.2 8.2 7.9 7.7 7.7 7.6 7.3 7.0 7.2 6.5 6.6 7.1 7.0
9.1 9.1 8.4 8.6 7.9 6.8 7.1 7.7 8.0 7.9 8.0 8.5 8.5 8.1 8.5 8.0 6.9 5.1 6.5 5.7 5.5 6.2 7.5 8.1 8.1 7.9 7.7 7.9 8.0 7.7 7.9 8.2 7.8 8.0 7.9 7.8 7.5 7.2 6.9 6.7 6.8 6.4 6.9 7.3
8.7 8.8 8.6 8.0 8.1 7.1 7.5 7.7 7.9 8.0 7.9 7.8 7.5 7.8 7.9 7.6 6.4 6.2 7.6 7.2 6.6 7.0 8.0 8.5 8.1 8.0 8.0 7.9 7.8 7.8 7.8 7.9 7.9 7.8 7.9 7.7 7.5 7.3 6.9 6.6 6.4 6.5 6.3 6.7
7.3 7.9 8.1 7.8 8.2 7.4 7.9 8.0 7.8 7.2 7.3 7.5 7.4 7.1 6.8 6.8 6.0 6.1 6.8 6.5 6.7 7.3 8.2 8.4 7.9 7.6 7.7 7.6 7.6 7.6 7.6 7.7 7.7 7.6 7.7 7.5 7.4 6.6 6.2 6.4 6.7 6.3 5.7 5.9
7.1 7.2 7.2 7.5 7.1 6.9 7.0 7.0 7.1 6.9 6.4 6.5 6.8 7.0 6.6 6.2 6.1 6.5 7.4 7.8 7.3 7.6 7.9 7.7 7.5 7.4 7.3 7.5 7.5 7.6 7.6 7.6 7.7 7.8 7.8 7.6 7.3 6.7 6.2 6.8 7.2 5.7 5.2 5.1
7.0 7.1 7.5 7.3 7.0 7.0 7.2 7.4 7.0 6.4 5.9 5.5 6.3 6.4 6.1 6.4 6.3 6.9 7.3 7.0 7.5 7.6 7.2 6.9 7.1 7.2 7.4 7.4 7.5 7.5 7.7 7.8 7.8 7.8 7.8 7.7 7.2 6.4 6.0 6.8 6.8 7.1 7.1 7.0
7.2 7.2 7.5 7.1 7.0 6.7 6.8 6.4 6.3 6.0 4.8 5.7 6.2 6.0 6.9 6.8 7.0 7.3 7.3 7.1 7.2 7.2 7.1 7.2 7.3 7.3 7.3 7.4 7.5 7.6 7.7 7.7 7.5 7.2 7.2 7.0 6.7 6.2 5.8 6.1 6.4 6.3 6.3 6.6
7.5 7.4 7.4 6.9 6.7 6.0 6.0 6.0 6.2 6.0 6.3 6.1 6.3 6.5 6.6 6.8 6.8 7.1 7.3 7.4 7.4 7.4 7.3 7.2 7.1 6.9 6.8 6.7 6.7 6.6 6.6 6.6 6.4 6.3 6.3 6.2 6.0 5.6 5.8 5.5 6.0 6.1 5.9 5.4
Wind_Speed
7 1 7 12 10 9 8 9 13 18 22 4 13 9 7 11 14 17 20 20 21 23 21 18 15 16 18 17 17 16 13 11 9 4 4 3 4 3 3 4 8 8 9 11
1 10 16 13 9 11 12 13 18 19 18 7 8 8 9 8 9 12 20 20 23 19 14 16 16 17 19 20 19 16 15 13 11 8 4 3 3 3 3 3 5 10 10 10
13 20 12 10 13 13 13 8 15 14 19 3 1 8 7 8 3 6 10 22 23 22 19 16 18 18 19 20 19 17 15 15 12 9 5 3 2 0 2 3 3 5 9 8
14 16 11 12 14 11 10 17 16 16 6 6 4 5 8 8 10 7 11 12 18 21 18 17 19 18 21 20 18 15 14 15 11 12 8 6 4 4 4 4 3 4 7 8
16 14 9 10 18 12 12 16 17 17 5 3 7 3 8 4 8 6 7 13 19 22 20 19 21 21 18 18 17 12 13 12 10 11 10 7 4 4 2 2 5 6 6 7
12 10 14 19 20 12 13 6 1 4 4 3 5 4 12 5 6 5 5 10 18 21 20 22 13 14 15 14 14 11 13 11 12 11 8 9 7 6 4 3 4 4 3 4
5 6 11 12 8 11 3 5 5 3 3 7 4 1 14 11 7 8 10 12 19 23 23 12 16 16 16 17 13 10 12 7 7 8 8 7 7 7 7 5 4 5 3 3
6 11 8 13 10 11 8 8 6 7 4 7 6 6 15 11 19 16 8 11 9 13 14 14 17 17 17 17 14 13 11 8 7 6 5 5 2 1 4 5 4 4 3 3
5 13 6 11 16 8 10 4 9 6 2 3 3 9 10 8 1 11 9 8 9 10 12 16 16 16 16 15 14 14 11 7 7 7 5 6 8 4 8 4 4 4 4 3
1 4 11 19 9 17 8 4 1 2 3 7 5 5 6 7 4 8 8 10 6 11 14 12 13 14 12 13 13 11 8 8 7 7 6 3 6 8 3 4 5 5 5 4
6 6 13 8 9 12 2 3 2 3 5 6 2 6 4 9 3 8 6 7 11 12 13 13 13 12 13 12 12 10 8 7 7 6 6 6 4 5 3 4 4 5 4 5
4 2 5 18 16 8 11 11 7 6 7 3 5 5 4 6 4 10 9 7 9 8 9 12 13 14 12 11 8 8 6 6 6 6 5 6 7 7 6 6 6 6 6 4
6 2 5 8 9 4 5 6 6 5 3 8 6 6 3 4 9 10 15 13 9 8 7 3 10 9 9 9 8 7 7 8 7 6 6 6 6 7 8 7 7 7 6 6
10 1 5 4 10 8 5 3 7 7 2 5 7 5 3 2 11 7 10 13 10 11 8 3 7 9 9 10 11 9 7 7 7 7 6 6 6 6 6 6 7 7 6 6
4 4 1 7 5 8 5 4 7 11 3 3 8 11 4 8 11 9 9 9 12 13 12 7 6 7 9 8 7 8 7 7 7 7 6 4 3 4 5 5 5 5 6 7
2 7 4 6 12 13 8 15 12 10 6 3 2 2 6 4 5 13 15 12 10 10 13 11 11 11 11 11 11 9 7 7 6 5 5 4 5 5 7 6 6 5 5 5
4 2 1 5 6 6 9 8 9 7 7 3 2 4 8 10 3 4 5 6 7 6 6 7 6 5 5 9 9 9 8 6 7 7 6 6 6 5 5 5 5 6 6 4
8 5 1 3 4 5 4 7 15 13 4 8 7 15 17 14 10 15 10 7 7 7 9 10 9 9 6 5 2 4 7 9 8 5 6 5 5 7 10 10 9 8 3 6
6 5 3 2 2 6 5 6 5 6 2 5 6 13 15 19 22 15 18 14 6 5 10 5 7 6 6 6 1 6 5 6 9 8 7 7 8 6 5 8 4 9 4 5
4 5 4 2 5 4 7 10 5 3 5 8 2 1 19 17 11 16 12 10 13 12 7 6 10 7 5 7 7 8 6 7 7 6 6 6 8 9 8 7 14 17 11 7
5 4 3 4 2 3 7 13 3 4 7 5 4 8 8 8 14 13 12 12 9 11 11 7 9 8 6 7 7 7 6 4 4 5 5 6 6 7 8 9 13 15 17 14
2 4 3 2 3 2 13 6 4 6 8 4 2 1 10 12 12 6 7 5 9 10 12 14 11 10 8 8 7 6 6 1 4 5 5 5 7 5 6 13 15 22 22 12
3 3 2 3 4 5 5 2 9 18 15 11 3 5 9 9 3 6 12 9 11 11 11 10 7 8 9 9 8 7 6 4 6 6 6 7 11 5 7 9 6 5 3 7
2 2 2 2 2 1 2 5 10 18 17 14 5 7 9 8 6 7 12 9 10 9 7 5 6 7 6 6 6 5 7 7 6 6 6 5 7 9 6 7 5 4 4 8
3 1 2 2 3 8 2 6 11 13 11 5 5 5 8 10 8 9 7 7 6 4 3 4 5 5 6 6 7 7 8 8 6 6 7 7 6 6 6 3 3 2 3 2
3 5 3 3 6 4 7 7 4 10 11 4 12 11 7 8 7 7 6 5 4 4 5 6 6 6 7 7 7 7 6 6 6 6 5 6 6 6 6 4 2 9 9 10
Wind_Direction
247 164 219 221 199 215 226 255 263 274 280 288 276 281 242 211 186 193 190 193 198 204 201 192 183 169 167 169 173 178 168 174 162 150 152 165 204 188 243 224 230 220 212 198
179 217 236 230 232 229 237 255 270 279 276 204 272 274 253 249 235 197 192 197 198 200 187 184 176 166 171 174 180 175 178 170 174 170 162 154 161 201 210 205 221 213 198 191
223 236 228 218 240 240 247 227 259 255 282 260 292 311 309 296 248 232 203 204 195 186 187 176 178 174 172 179 181 177 175 175 172 161 130 97 106 315 247 236 219 190 183 178
221 249 230 232 239 226 255 248 251 265 293 270 85 268 307 283 304 305 288 187 192 189 180 178 181 177 179 182 178 176 168 169 168 158 159 164 172 194 228 210 201 181 178 182
230 228 243 241 240 234 243 256 250 253 208 54 322 61 265 340 309 294 261 205 182 185 172 181 188 183 178 170 174 166 163 157 154 168 170 174 181 219 253 237 208 196 181 179
211 216 224 237 253 250 254 246 50 59 104 288 250 128 289 232 221 256 263 159 168 172 180 195 174 158 165 164 164 158 155 163 166 166 171 166 180 220 222 238 212 195 196 194
266 245 254 244 260 270 217 60 298 323 340 228 225 59 257 274 209 219 209 177 177 177 187 149 154 158 158 162 154 142 147 146 152 158 171 173 192 182 218 196 207 172 156 194
196 263 232 242 193 230 234 170 179 216 211 257 125 228 268 250 268 212 186 166 156 180 178 159 160 160 157 152 146 138 141 142 151 149 170 189 90 68 266 190 195 194 178 192
208 255 252 246 248 155 268 185 195 137 37 36 207 288 310 305 239 154 160 132 153 149 146 151 153 155 147 144 146 146 141 140 154 176 163 146 103 330 245 171 199 182 164 186
217 319 255 244 257 256 168 200 266 8 158 271 288 283 248 303 245 111 128 144 143 125 130 133 136 135 133 133 130 126 138 155 177 173 158 130 164 199 195 147 185 163 145 144
195 149 266 323 224 230 291 293 93 128 137 181 245 272 244 249 320 106 92 118 137 132 132 138 134 129 123 126 132 146 158 160 177 152 140 157 174 175 144 151 151 148 130 143
311 216 228 231 259 224 212 231 197 195 237 191 156 268 333 289 50 104 89 70 55 66 119 131 133 132 130 135 143 157 167 164 164 153 164 169 162 147 147 150 152 146 155 155
313 327 344 333 275 253 204 181 183 138 6 195 155 246 73 304 92 93 92 87 86 75 55 105 117 126 135 141 156 167 173 181 159 164 175 174 162 161 163 161 163 156 159 175
12 213 124 219 251 258 210 175 223 141 185 214 204 207 196 69 116 68 96 86 95 118 122 225 130 146 152 161 171 180 187 170 163 164 188 181 179 171 169 160 161 160 167 175
90 300 272 254 300 324 252 152 128 338 6 176 267 195 148 181 149 145 141 144 132 133 127 186 158 145 164 163 165 178 179 168 176 170 178 195 202 153 151 151 175 176 176 180
71 269 250 324 344 337 79 32 64 78 347 357 49 75 170 235 281 160 162 160 151 166 161 165 165 166 168 172 175 171 172 170 174 171 171 175 196 170 172 175 181 188 204 197
235 184 333 285 317 303 31 356 69 91 28 241 34 356 73 30 39 17 360 30 59 39 65 72 83 98 148 161 159 176 174 152 173 170 174 183 196 183 177 174 170 190 203 206
169 146 110 261 332 66 213 40 102 113 65 59 70 54 41 29 18 353 30 80 85 85 63 50 60 60 57 97 139 180 168 173 172 106 73 74 76 62 58 39 6 322 245 197
169 132 87 154 129 131 13 345 355 348 336 326 96 80 54 25 34 339 21 18 344 93 95 112 87 59 13 34 299 162 118 102 111 114 130 120 110 122 145 135 96 289 277 280
35 76 123 169 104 91 243 292 307 345 289 216 306 156 105 61 26 300 1 22 10 16 56 71 68 70 36 6 34 76 78 107 128 147 166 174 170 174 195 189 186 209 215 211
344 353 51 10 51 104 291 284 225 146 245 195 208 155 119 121 173 251 332 7 32 35 26 55 60 66 38 32 53 65 80 105 155 186 196 200 184 213 228 238 230 217 222 215
11 354 356 341 68 6 339 347 32 325 335 268 245 282 108 116 153 199 107 57 50 41 35 45 51 42 34 38 44 53 48 229 209 219 223 239 242 217 245 247 262 258 243 223
350 163 235 161 189 227 311 6 43 30 334 297 272 252 142 117 154 209 78 56 49 40 35 35 48 35 26 25 28 18 349 323 260 263 255 246 267 231 256 258 231 260 161 205
203 158 227 56 333 51 58 61 66 51 329 260 240 181 165 149 126 71 72 57 47 34 30 21 33 33 26 16 18 5 337 333 328 314 303 266 260 278 279 292 292 231 148 207
202 90 249 154 145 99 65 102 118 92 27 350 102 83 89 70 63 89 90 92 100 91 64 43 40 37 24 9 1 4 357 359 357 344 339 342 324 304 287 273 298 261 71 64
171 210 189 215 192 199 208 212 204 160 172 94 83 75 66 93 91 80 75 82 84 80 58 47 41 39 16 4 357 341 344 357 351 348 348 337 324 312 311 293 213 64 62 68